Sigfox identifier Datetime Temperature Humidity SNR
002EF14E 2019-04-23 15:00:28 15.7 33 20.9
002EF14E 2019-04-23 14:25:33 15.7 33 20.7
002EF14E 2019-04-23 13:50:37 15.7 33 20.3
002EF14E 2019-04-23 13:15:42 15.7 33 20
002EF14E 2019-04-23 12:40:46 15.5 33 19.8
002EF14E 2019-04-23 12:05:50 15.5 33 19.7
002EF14E 2019-04-23 11:30:54 15.5 33 19.3
002EF14E 2019-04-23 10:55:59 15.5 33 18.9
002EF14E 2019-04-23 10:21:03 15.5 32 18.7
002EF14E 2019-04-23 09:46:08 15.5 32 18.7
002EF14E 2019-04-23 09:11:11 15.5 32 17.8
002EF14E 2019-04-23 08:36:17 15.5 32 17.4
002EF14E 2019-04-23 08:01:22 15.5 32 16.6
002EF14E 2019-04-23 07:26:29 15.5 32 16.6
002EF14E 2019-04-23 06:51:31 15.5 32 16.7
002EF14E 2019-04-23 06:16:36 15.5 32 16.6
002EF14E 2019-04-23 05:41:41 15.5 32 16.6
002EF14E 2019-04-23 05:06:47 15.5 32 16.7
002EF14E 2019-04-23 04:31:52 15.5 32 16.7
002EF14E 2019-04-23 03:56:58 15.5 32 16.8
002EF14E 2019-04-23 03:22:02 15.5 32 16.8
002EF14E 2019-04-23 02:47:07 15.5 32 17
002EF14E 2019-04-23 02:12:12 15.6 32 17
002EF14E 2019-04-23 01:37:17 15.6 32 17.1
002EF14E 2019-04-23 01:02:22 15.6 32 17.2
002EF14E 2019-04-23 00:27:28 15.6 32 17.2
002EF14E 2019-04-22 23:52:32 15.6 32 17.2
002EF14E 2019-04-22 23:17:37 15.6 32 17.3
002EF14E 2019-04-22 22:42:42 15.7 32 17.3
002EF14E 2019-04-22 22:07:48 15.7 32 17.2
002EF14E 2019-04-22 21:32:54 15.7 32 17.2
002EF14E 2019-04-22 20:57:59 15.7 32 17.1
002EF14E 2019-04-22 20:23:04 15.7 32 17
002EF14E 2019-04-22 19:48:10 15.7 32 16.9
002EF14E 2019-04-22 19:13:15 15.7 32 16.8
002EF14E 2019-04-22 18:38:20 15.7 32 16.7
002EF14E 2019-04-22 18:03:24 15.7 32 16.5
002EF14E 2019-04-22 17:28:29 15.6 32 16.4
002EF14E 2019-04-22 16:53:33 15.6 32 16.3
002EF14E 2019-04-22 16:18:37 15.5 32 16.4
002EF14E 2019-04-22 15:43:40 15.6 32 16.3
002EF14E 2019-04-22 15:08:45 15.5 32 16.4
002EF14E 2019-04-22 14:33:50 15.5 32 16.3
002EF14E 2019-04-22 13:58:54 15.5 32 16.2
002EF14E 2019-04-22 13:23:59 15.5 32 16.2
002EF14E 2019-04-22 12:49:03 15.5 32 16.2
002EF14E 2019-04-22 12:14:08 15.5 32 16
002EF14E 2019-04-22 11:39:13 15.5 32 16.1
002EF14E 2019-04-22 11:04:18 15.5 32 16
002EF14E 2019-04-22 10:29:23 15.5 32 15.9
002EF14E 2019-04-22 09:54:28 15.5 32 15.9
002EF14E 2019-04-22 09:19:32 15.5 32 15.9
002EF14E 2019-04-22 08:44:37 15.5 32 15.8
002EF14E 2019-04-22 08:09:41 15.5 32 15.9
002EF14E 2019-04-22 07:34:46 15.5 32 16.2
002EF14E 2019-04-22 06:59:52 15.5 32 16.2
002EF14E 2019-04-22 06:24:58 15.5 32 16.4
002EF14E 2019-04-22 05:50:03 15.5 32 16.6
002EF14E 2019-04-22 05:15:06 15.5 31 16.8
002EF14E 2019-04-22 04:40:11 15.4 31 17.1
002EF14E 2019-04-22 04:05:17 15.5 31 17.3
002EF14E 2019-04-22 03:30:23 15.5 31 17.5
002EF14E 2019-04-22 02:55:29 15.5 31 17.5
002EF14E 2019-04-22 02:20:34 15.4 31 17.6
002EF14E 2019-04-22 01:45:39 15.3 31 17.5
002EF14E 2019-04-22 01:10:44 15.4 31 17.6
002EF14E 2019-04-22 00:35:54 15.3 31 17.7
002EF14E 2019-04-22 00:00:54 15.3 31 17.8
002EF14E 2019-04-21 23:25:59 15.4 31 17.8
002EF14E 2019-04-21 22:51:04 15.3 31 17.9
002EF14E 2019-04-21 22:16:09 15.4 31 17.9
002EF14E 2019-04-21 21:41:14 15.3 31 17.9
002EF14E 2019-04-21 21:06:18 15.3 31 17.8
002EF14E 2019-04-21 20:31:22 15.3 31 17.7
002EF14E 2019-04-21 19:56:27 15.3 31 17.6
002EF14E 2019-04-21 19:21:30 15.3 31 17.5
002EF14E 2019-04-21 18:46:34 15.3 31 17.4
002EF14E 2019-04-21 18:11:39 15.3 31 17.3
002EF14E 2019-04-21 17:36:44 15.3 31 17.1
002EF14E 2019-04-21 17:01:49 15.3 31 16.9
002EF14E 2019-04-21 16:26:55 15.3 31 16.8
002EF14E 2019-04-21 15:52:01 15.3 31 16.6
002EF14E 2019-04-21 15:17:07 15.3 31 16.5
002EF14E 2019-04-21 14:42:13 15.3 31 16.3
002EF14E 2019-04-21 14:07:19 15.3 31 15.9
002EF14E 2019-04-21 13:32:25 15.5 31 15.8
002EF14E 2019-04-21 12:57:30 15.5 31 15.6
002EF14E 2019-04-21 12:22:35 15.5 31 15.5
002EF14E 2019-04-21 11:47:40 15.5 31 15.5
002EF14E 2019-04-21 11:12:45 15.5 31 15.6
002EF14E 2019-04-21 10:37:50 15.5 31 15.5
002EF14E 2019-04-21 10:02:55 15.5 31 15.4
002EF14E 2019-04-21 09:27:59 15.5 31 15.3
002EF14E 2019-04-21 08:53:03 15.5 31 15.2
002EF14E 2019-04-21 08:18:08 15.5 31 15.1
002EF14E 2019-04-21 07:43:11 15.6 31 15
002EF14E 2019-04-21 07:08:17 15.5 31 15.1
002EF14E 2019-04-21 06:33:21 15.5 31 15.3
002EF14E 2019-04-21 05:58:27 15.5 31 15.3
002EF14E 2019-04-21 05:23:31 15.5 31 15.4
002EF14E 2019-04-21 04:48:35 15.5 31 15.5
002EF14E 2019-04-21 04:13:39 15.5 31 15.6
002EF14E 2019-04-21 03:38:43 15.5 30 15.8
002EF14E 2019-04-21 03:03:48 15.5 30 16
002EF14E 2019-04-21 02:28:52 15.5 30 16.2
002EF14E 2019-04-21 01:53:57 15.5 30 16.2
002EF14E 2019-04-21 01:19:01 15.5 30 16.3
002EF14E 2019-04-21 00:44:03 15.5 30 16.4
002EF14E 2019-04-21 00:09:06 15.5 30 16.5
002EF14E 2019-04-20 23:34:10 15.5 30 16.6
002EF14E 2019-04-20 22:59:15 15.5 30 16.6
002EF14E 2019-04-20 22:24:20 15.5 30 16.7
002EF14E 2019-04-20 21:49:25 15.5 30 16.8
002EF14E 2019-04-20 21:14:31 15.5 30 16.7
002EF14E 2019-04-20 20:39:36 15.5 30 16.7
002EF14E 2019-04-20 20:04:42 15.5 30 16.8
002EF14E 2019-04-20 19:29:49 15.5 30 16.6
002EF14E 2019-04-20 18:54:57 15.5 30 16.4
002EF14E 2019-04-20 18:20:01 15.5 30 16.4
002EF14E 2019-04-20 17:45:05 15.5 30 16.5
002EF14E 2019-04-20 17:10:09 15.6 30 16.6
002EF14E 2019-04-20 16:35:12 15.6 30 16.5
002EF14E 2019-04-20 16:00:18 15.5 30 16.4
002EF14E 2019-04-20 15:25:22 15.6 30 16.4
002EF14E 2019-04-20 14:50:30 15.5 30 16.4
002EF14E 2019-04-20 14:15:33 15.5 30 16.3
002EF14E 2019-04-20 13:40:38 15.5 30 16.3
002EF14E 2019-04-20 13:05:44 15.5 30 16.2
002EF14E 2019-04-20 12:30:50 15.6 30 16.1
002EF14E 2019-04-20 11:55:56 15.5 30 15.8
002EF14E 2019-04-20 11:21:02 15.5 30 15.8
002EF14E 2019-04-20 10:46:08 15.6 30 15.8
002EF14E 2019-04-20 10:11:13 15.7 30 15.7
002EF14E 2019-04-20 09:36:19 15.6 30 15.6
002EF14E 2019-04-20 09:01:25 15.7 30 15.7
002EF14E 2019-04-20 08:26:30 15.7 30 15.8
002EF14E 2019-04-20 07:51:35 15.7 30 15.8
002EF14E 2019-04-20 07:16:42 15.7 30 15.9
002EF14E 2019-04-20 06:41:48 15.7 30 16.2
002EF14E 2019-04-20 06:06:54 15.7 30 16.3
002EF14E 2019-04-20 05:32:00 15.7 29 16.4
002EF14E 2019-04-20 04:57:06 15.7 29 16.7
002EF14E 2019-04-20 04:22:12 15.8 29 16.8
002EF14E 2019-04-20 03:47:18 15.9 29 16.9
002EF14E 2019-04-20 03:12:24 15.9 29 16.8
002EF14E 2019-04-20 02:37:30 16 29 16.9
002EF14E 2019-04-20 02:02:34 16 29 17.1
002EF14E 2019-04-20 01:27:39 16 29 17.1
002EF14E 2019-04-20 00:52:45 15.9 29 17.2
002EF14E 2019-04-20 00:17:50 16 29 17.3
002EF14E 2019-04-19 23:42:56 16 29 17.4
002EF14E 2019-04-19 23:08:01 16 29 17.3
002EF14E 2019-04-19 22:33:07 16 29 17.4
002EF14E 2019-04-19 21:58:13 16 29 17.4
002EF14E 2019-04-19 21:23:19 16 29 17.5
002EF14E 2019-04-19 20:48:24 15.9 29 17.4
002EF14E 2019-04-19 20:13:31 16 29 17.4
002EF14E 2019-04-19 19:38:36 16 29 17.3
002EF14E 2019-04-19 19:03:42 16 29 17.3
002EF14E 2019-04-19 18:28:48 15.9 29 17.2
002EF14E 2019-04-19 17:53:53 16 29 17.1
002EF14E 2019-04-19 17:18:59 15.9 29 17
002EF14E 2019-04-19 16:44:07 15.9 29 16.8
002EF14E 2019-04-19 16:09:14 16 29 16.5
002EF14E 2019-04-19 15:34:19 15.9 29 16.4
002EF14E 2019-04-19 14:59:25 16 29 16.3
002EF14E 2019-04-19 14:24:31 15.9 29 16.1
002EF14E 2019-04-19 13:49:36 15.9 29 16.1
002EF14E 2019-04-19 13:14:41 15.9 29 15.9
002EF14E 2019-04-19 12:39:44 15.9 29 15.8
002EF14E 2019-04-19 12:04:49 15.9 29 15.7
002EF14E 2019-04-19 11:29:54 16 29 15.7
002EF14E 2019-04-19 10:55:00 16 29 15.7
002EF14E 2019-04-19 10:20:06 16 29 15.7
002EF14E 2019-04-19 09:45:10 16 29 15.8
002EF14E 2019-04-19 09:10:15 16 29 16.3
002EF14E 2019-04-19 08:35:20 16 29 16.4
002EF14E 2019-04-19 08:00:26 16 28 16.5
002EF14E 2019-04-19 07:25:31 16 28 16.7
002EF14E 2019-04-19 06:50:36 16 28 16.9
002EF14E 2019-04-19 06:15:41 16.1 28 17.3
002EF14E 2019-04-19 05:40:45 16.2 28 18
002EF14E 2019-04-19 05:05:53 16.2 28 18.5
002EF14E 2019-04-19 04:30:56 16.2 28 18.5
002EF14E 2019-04-19 03:56:00 16.2 28 18.5
002EF14E 2019-04-19 03:21:04 16.2 28 18.6
002EF14E 2019-04-19 02:46:07 16.2 28 19.1
002EF14E 2019-04-19 02:11:12 16.4 28 19.4
002EF14E 2019-04-19 01:36:18 16.4 28 19.9
002EF14E 2019-04-19 01:01:23 16.4 28 20.2
002EF14E 2019-04-19 00:26:27 16.4 28 20.7
002EF14E 2019-04-18 23:51:31 16.4 28 21.2
002EF14E 2019-04-18 23:16:38 16.4 28 21.4
002EF14E 2019-04-18 22:41:45 16.4 28 21.6
002EF14E 2019-04-18 22:06:46 16.4 28 21.7
002EF14E 2019-04-18 21:31:50 16.4 28 21.8
002EF14E 2019-04-18 20:56:56 16.4 28 21.8
002EF14E 2019-04-18 20:22:03 16.4 28 21.8
002EF14E 2019-04-18 19:47:10 16.4 28 21.7
002EF14E 2019-04-18 19:12:14 16.4 28 21.7
002EF14E 2019-04-18 18:37:19 16.4 28 21.5
002EF14E 2019-04-18 18:02:24 16.4 28 21.5
002EF14E 2019-04-18 17:27:30 16.4 28 21.4
002EF14E 2019-04-18 16:52:34 16.4 28 21.3
002EF14E 2019-04-18 16:17:40 16.3 28 21.2
002EF14E 2019-04-18 15:42:45 16.2 28 21.1
002EF14E 2019-04-18 15:07:51 16.3 28 20.8
002EF14E 2019-04-18 14:32:58 16.2 28 20.6
002EF14E 2019-04-18 13:58:01 16.2 28 20.6
002EF14E 2019-04-18 13:23:07 16.2 28 20.5
002EF14E 2019-04-18 12:48:12 16.2 28 20.3
002EF14E 2019-04-18 12:13:17 16.3 28 20.2
002EF14E 2019-04-18 11:38:22 16.3 27 19.8
002EF14E 2019-04-18 11:03:27 16.3 27 19.7
002EF14E 2019-04-18 10:28:33 16.3 27 19.2
002EF14E 2019-04-18 09:53:38 16.4 27 18.4
002EF14E 2019-04-18 09:18:44 16.4 27 18.2
002EF14E 2019-04-18 08:43:47 16.4 27 17.8
002EF14E 2019-04-18 08:08:52 16.4 27 17.8
002EF14E 2019-04-18 07:33:55 16.4 27 17.7
002EF14E 2019-04-18 06:58:59 16.4 27 17.8
002EF14E 2019-04-18 06:24:04 16.4 27 18.6
002EF14E 2019-04-18 05:49:08 16.4 27 18.9
002EF14E 2019-04-18 05:14:13 16.5 27 19.3
002EF14E 2019-04-18 04:39:18 16.6 27 19.9
002EF14E 2019-04-18 04:04:22 16.6 27 20
002EF14E 2019-04-18 03:29:26 16.6 27 20
002EF14E 2019-04-18 02:54:29 16.6 27 20.1
002EF14E 2019-04-18 02:19:34 16.7 27 20.1
002EF14E 2019-04-18 01:44:38 16.8 27 20.1
002EF14E 2019-04-18 01:09:42 16.8 27 20.1
002EF14E 2019-04-18 00:34:47 16.8 27 20.3
002EF14E 2019-04-17 23:59:53 16.8 27 20.3
002EF14E 2019-04-17 23:24:58 16.8 27 20.4
002EF14E 2019-04-17 22:50:04 16.8 27 20.3
002EF14E 2019-04-17 22:15:10 16.8 26 20.3
002EF14E 2019-04-17 21:40:16 16.8 26 20.2
002EF14E 2019-04-17 21:05:22 16.8 26 20.1
002EF14E 2019-04-17 20:30:27 16.8 26 20.1
002EF14E 2019-04-17 19:55:31 16.9 26 20
002EF14E 2019-04-17 19:20:38 16.9 26 20
002EF14E 2019-04-17 18:45:42 17 26 19.8
002EF14E 2019-04-17 18:10:48 17 26 19.9
002EF14E 2019-04-17 17:35:53 17 26 19.8
002EF14E 2019-04-17 17:00:59 17 26 19.9
002EF14E 2019-04-17 16:26:05 17.1 26 20
002EF14E 2019-04-17 15:51:11 17.1 26 19.5
002EF14E 2019-04-17 15:16:16 17.2 26 19.4
002EF14E 2019-04-17 14:41:22 17.2 26 19.1
002EF14E 2019-04-17 14:06:28 17.2 25 18.4
002EF14E 2019-04-17 12:56:39 17.3 25 18.3
002EF14E 2019-04-17 12:21:44 17.4 25 18.1
002EF14E 2019-04-17 11:46:50 17.5 25 18
002EF14E 2019-04-17 11:11:55 17.5 25 17.9
002EF14E 2019-04-17 10:37:01 17.6 25 17.9
002EF14E 2019-04-17 10:02:08 17.7 25 17.9
002EF14E 2019-04-17 09:27:14 17.8 25 17.4
002EF14E 2019-04-17 08:52:22 17.9 25 17.3
002EF14E 2019-04-17 08:17:29 18 25 18.3
002EF14E 2019-04-17 07:42:38 18.1 25 18.6
002EF14E 2019-04-17 07:07:42 18.1 25 18.5
002EF14E 2019-04-17 06:32:49 18.1 25 18.4
002EF14E 2019-04-17 05:57:55 18.3 25 18.3
002EF14E 2019-04-17 05:23:02 18.3 25 18.2
002EF14E 2019-04-17 04:48:10 18.4 25 18.2
002EF14E 2019-04-17 04:13:17 18.5 25 18
002EF14E 2019-04-17 03:38:24 18.6 25 17.8
002EF14E 2019-04-17 03:03:31 18.6 25 17.7
002EF14E 2019-04-17 02:28:36 18.7 24 17.5
002EF14E 2019-04-17 01:53:44 18.7 24 17.2
002EF14E 2019-04-17 01:18:49 18.7 24 17
002EF14E 2019-04-17 00:43:54 18.8 24 16.7
002EF14E 2019-04-17 00:09:01 19 24 16.5
002EF14E 2019-04-16 23:34:08 19 24 16.2
002EF14E 2019-04-16 22:59:14 19.2 24 16.1
002EF14E 2019-04-16 22:24:21 19.4 24 16.1
002EF14E 2019-04-16 21:49:27 19.4 24 19.1
002EF14E 2019-04-16 21:14:35 19.6 24 19.1
002EF14E 2019-04-16 20:39:45 19.6 24 19.1
002EF14E 2019-04-16 20:04:49 19.8 24 19.1
002EF14E 2019-04-16 19:29:57 19.8 24 19
002EF14E 2019-04-16 18:20:14 20 24 19
002EF14E 2019-04-16 17:45:18 20.1 24 18.9
002EF14E 2019-04-16 16:00:39 20.5 24 17.9
002EF14E 2019-04-16 15:25:47 20.7 24 17.6
002EF14E 2019-04-16 14:50:55 20.7 24 17.5
002EF14E 2019-04-16 14:16:01 20.9 24 17.5
002EF14E 2019-04-16 13:41:09 20.9 24 17.5
002EF14E 2019-04-16 13:06:17 20.8 24 17.5
002EF14E 2019-04-16 12:31:23 20.7 24 17.5
002EF14E 2019-04-16 11:21:35 20.7 25 17.4
002EF14E 2019-04-16 10:46:43 20.7 24 19.8
002EF14E 2019-04-16 10:11:50 20.7 24 19.8
002EF14E 2019-04-16 09:36:58 20.7 24 19.8
002EF14E 2019-04-16 08:27:17 20.7 24 19.7
002EF14E 2019-04-16 07:52:22 20.7 24 19.7
002EF14E 2019-04-16 07:17:27 20.7 24 19.8
002EF14E 2019-04-16 06:42:37 20.7 24 19.8
002EF14E 2019-04-16 06:07:44 20.7 24 19.8
002EF14E 2019-04-16 05:32:52 20.7 24 19.8
002EF14E 2019-04-16 04:57:59 20.7 24 19.9
002EF14E 2019-04-16 04:23:09 20.7 24 18.3
002EF14E 2019-04-16 03:48:17 20.7 24 19.3
002EF14E 2019-04-16 03:13:28 20.7 23 19.7
002EF14E 2019-04-16 02:38:34 20.7 23 20.4
002EF14E 2019-04-16 02:03:41 20.7 23 21.2
002EF14E 2019-04-16 01:28:54 20.7 23 21.6
002EF14E 2019-04-16 00:54:00 20.8 23 22.1
002EF14E 2019-04-16 00:19:05 20.8 23 22.5
002EF14E 2019-04-15 23:44:14 20.8 23 23
002EF14E 2019-04-15 23:09:24 20.9 23 23.3
002EF14E 2019-04-15 21:59:37 20.9 23 23.6
002EF14E 2019-04-15 21:24:42 20.9 22 23.8
002EF14E 2019-04-15 20:49:49 20.9 22 24.1
002EF14E 2019-04-15 20:15:01 21.1 22 24.3
002EF14E 2019-04-15 19:40:07 21.1 22 24.6
002EF14E 2019-04-15 18:30:21 21.2 22 24.2
002EF14E 2019-04-15 17:20:38 21.3 21 24.6
002EF14E 2019-04-15 16:45:45 21.4 21 24.7
002EF14E 2019-04-15 16:10:53 21.5 21 24.9
002EF14E 2019-04-15 15:36:04 21.5 20 25.2
002EF14E 2019-04-15 15:01:10 21.8 20 25.3
002EF14E 2019-04-15 14:26:20 21.9 20 25.4
002EF14E 2019-04-15 13:16:34 22.1 19 25.7
002EF14E 2019-04-15 12:41:46 22.2 18 25.9
002EF14E 2019-04-15 12:06:53 22.5 18 26.1
002EF14E 2019-04-15 11:31:58 22.4 17 26.2
002EF14E 2019-04-15 10:57:06 22.4 17 26.3
002EF14E 2019-04-15 10:22:14 22.4 17 26.3
002EF14E 2019-04-15 09:47:23 22.4 18 26.4
002EF14E 2019-04-15 09:12:31 22.2 18 26.4
002EF14E 2019-04-15 08:37:40 22.2 18 26.4
002EF14E 2019-04-15 08:02:47 22 17 26.3
002EF14E 2019-04-15 07:27:55 21.9 18 26.5
002EF14E 2019-04-15 06:53:02 21.9 18 26.5
002EF14E 2019-04-15 06:18:10 21.8 18 26.5
002EF14E 2019-04-15 05:43:19 21.8 18 26.6
002EF14E 2019-04-15 05:08:28 21.8 18 26.7
002EF14E 2019-04-15 04:33:36 21.8 18 26.7
002EF14E 2019-04-15 03:58:43 21.8 18 26.7
002EF14E 2019-04-15 03:23:50 21.8 18 26.7
002EF14E 2019-04-15 02:48:56 21.8 18 26.6
002EF14E 2019-04-15 02:14:05 21.8 18 26.7
002EF14E 2019-04-15 01:39:15 21.8 18 26.8
002EF14E 2019-04-15 01:04:24 21.8 18 26.7
002EF14E 2019-04-15 00:29:33 21.8 18 26.7
002EF14E 2019-04-14 23:54:41 21.8 18 26.7
002EF14E 2019-04-14 23:19:51 21.8 18 26.8
002EF14E 2019-04-14 22:45:00 21.8 19 26.8
002EF14E 2019-04-14 22:10:09 21.8 19 26.7
002EF14E 2019-04-14 21:35:18 21.9 19 26.7
002EF14E 2019-04-14 21:00:28 22 19 26.8
002EF14E 2019-04-14 20:25:36 22 19 26.8
002EF14E 2019-04-14 19:50:45 22 19 26.8
002EF14E 2019-04-14 19:15:55 22 19 26.7
002EF14E 2019-04-14 18:41:03 22 19 26.9
002EF14E 2019-04-14 18:06:12 21.9 19 26.9
002EF14E 2019-04-14 17:31:21 21.9 19 26.9
002EF14E 2019-04-14 16:56:30 21.9 18 26.7
002EF14E 2019-04-14 16:21:38 21.9 19 26.7
002EF14E 2019-04-14 15:46:47 21.9 19 26.7
002EF14E 2019-04-14 15:11:54 21.9 19 26.6
002EF14E 2019-04-14 14:37:03 21.9 19 26.5
002EF14E 2019-04-14 14:02:12 22 19 26.6
002EF14E 2019-04-14 13:27:20 22 19 26.7
002EF14E 2019-04-14 12:52:29 22 19 26.6
002EF14E 2019-04-14 12:17:38 22 19 26.7
002EF14E 2019-04-14 11:42:45 21.9 19 26.6
002EF14E 2019-04-14 11:07:54 21.9 19 26.6
002EF14E 2019-04-14 10:33:02 21.9 19 26.5
002EF14E 2019-04-14 09:58:09 21.9 19 26.6
002EF14E 2019-04-14 09:23:17 21.9 19 26.7
002EF14E 2019-04-14 08:48:26 22 19 26.6
002EF14E 2019-04-14 08:13:34 21.9 19 26.5
002EF14E 2019-04-14 07:38:42 21.9 19 26.5
002EF14E 2019-04-14 07:03:51 21.9 19 26.7
002EF14E 2019-04-14 06:28:59 21.8 18 26.7
002EF14E 2019-04-14 05:54:05 21.9 18 26.6
002EF14E 2019-04-14 05:19:13 21.8 18 26.5
002EF14E 2019-04-14 04:44:21 21.8 18 26.6
002EF14E 2019-04-14 04:09:28 21.8 18 26.4
002EF14E 2019-04-14 03:34:35 21.9 18 26.3
002EF14E 2019-04-14 02:59:42 21.9 18 26.4
002EF14E 2019-04-14 02:24:50 21.9 19 26.4
002EF14E 2019-04-14 01:49:57 21.9 19 26.3
002EF14E 2019-04-14 01:15:04 21.9 19 26.4
002EF14E 2019-04-14 00:40:10 22 19 26.4
002EF14E 2019-04-14 00:05:17 21.9 18 26.4
002EF14E 2019-04-13 23:30:23 22 18 26.3
002EF14E 2019-04-13 22:55:31 22 18 26.3
002EF14E 2019-04-13 22:20:37 22 18 26.3
002EF14E 2019-04-13 21:45:44 22 18 26.3
002EF14E 2019-04-13 21:10:51 22 18 26.3
002EF14E 2019-04-13 20:35:58 22.1 18 26.3
002EF14E 2019-04-13 20:01:06 22.1 18 26.3
002EF14E 2019-04-13 19:26:13 22.2 18 26.2
002EF14E 2019-04-13 18:51:22 22.2 18 26.1
002EF14E 2019-04-13 18:16:28 22.2 18 26.2
002EF14E 2019-04-13 17:41:36 22.2 18 26.4
002EF14E 2019-04-13 17:06:43 22.2 18 26.3
002EF14E 2019-04-13 16:31:50 22.2 18 26.1
002EF14E 2019-04-13 15:56:56 22.2 18 26
002EF14E 2019-04-13 15:22:04 22.2 18 26
002EF14E 2019-04-13 14:47:11 22.3 18 26
002EF14E 2019-04-13 14:12:18 22.4 18 26
002EF14E 2019-04-13 13:37:25 22.4 18 26
002EF14E 2019-04-13 13:02:32 22.4 18 26.1
002EF14E 2019-04-13 12:27:38 22.4 18 26
002EF14E 2019-04-13 11:52:44 22.4 18 25.9
002EF14E 2019-04-13 11:17:50 22.4 18 26
002EF14E 2019-04-13 10:42:57 22.4 18 25.8
002EF14E 2019-04-13 10:08:04 22.4 18 25.7
002EF14E 2019-04-13 09:33:10 22.4 18 25.9
002EF14E 2019-04-13 08:58:16 22.4 18 26
002EF14E 2019-04-13 08:23:22 22.4 18 25.9
002EF14E 2019-04-13 07:48:27 22.3 18 26
002EF14E 2019-04-13 07:13:33 22.3 18 25.9
002EF14E 2019-04-13 06:38:38 22.3 18 25.9
002EF14E 2019-04-13 06:03:43 22.3 18 25.8
002EF14E 2019-04-13 05:28:49 22.3 18 25.9
002EF14E 2019-04-13 04:53:55 22.3 18 26.2
002EF14E 2019-04-13 04:19:02 22.3 18 26.5
002EF14E 2019-04-13 03:44:07 22.4 18 26.5
002EF14E 2019-04-13 03:09:14 22.4 18 26.3
002EF14E 2019-04-13 02:34:19 22.4 18 26.3
002EF14E 2019-04-13 01:59:25 22.4 18 26.3
002EF14E 2019-04-13 01:24:31 22.4 18 26.3
002EF14E 2019-04-13 00:49:38 22.4 18 26.3
002EF14E 2019-04-13 00:14:44 22.5 18 26.4
002EF14E 2019-04-12 23:39:50 22.5 19 26.3
002EF14E 2019-04-12 23:04:58 22.6 19 26.3
002EF14E 2019-04-12 22:30:06 22.6 19 26.3
002EF14E 2019-04-12 21:55:13 22.6 19 26.5
002EF14E 2019-04-12 21:20:20 22.8 19 26.5
002EF14E 2019-04-12 20:45:28 22.8 19 26.7
002EF14E 2019-04-12 20:10:35 22.8 18 26.8
002EF14E 2019-04-12 19:35:43 22.8 18 26.9
002EF14E 2019-04-12 19:00:50 22.8 18 26.6
002EF14E 2019-04-12 18:25:58 23 17 26.7
002EF14E 2019-04-12 17:51:05 23.2 17 26.8
002EF14E 2019-04-12 17:16:11 23.3 18 26.9
002EF14E 2019-04-12 16:41:17 23.3 18 27
002EF14E 2019-04-12 16:06:24 23.3 19 27.3
002EF14E 2019-04-12 15:31:31 23.3 19 27.9
002EF14E 2019-04-12 14:56:39 23.2 19 28.1
002EF14E 2019-04-12 14:21:45 23 20 27.2
002EF14E 2019-04-12 13:46:52 22.6 20 24.6
002EF14E 2019-04-12 13:11:58 21.3 23 14.1